This is the latest recevied weather packets stored in our database for station/object EA5JPW-10. If no packets are shown the sender has not sent any weather packets the latest 10 day(s).
| Time | Temp. | Humidity | Pressure | Rain* | Wind** | Luminosity | Snow |
|---|---|---|---|---|---|---|---|
| 1777282435 | 27.78° C | 42% | 997.7 hPa | - | - | - | - |
| 1777281535 | 27.78° C | 43% | 997.2 hPa | - | - | - | - |
| 1777280635 | 28.89° C | 43% | 996.9 hPa | - | - | - | - |
| 1777279734 | 27.22° C | 44% | 998.2 hPa | - | - | - | - |
| 1777278834 | 25° C | 46% | 996.4 hPa | - | - | - | - |
| 1777277934 | 26.67° C | 46% | 997.7 hPa | - | - | - | - |
| 1777277033 | 25.56° C | 46% | 998 hPa | - | - | - | - |
| 1777276138 | 23.33° C | 47% | 998.1 hPa | - | - | - | - |
| 1777275238 | 21.67° C | 47% | 998.2 hPa | - | - | - | - |
| 1777274337 | 20° C | 48% | 998.2 hPa | - | - | - | - |
| 1777273437 | 19.44° C | 48% | 997.9 hPa | - | - | - | - |
| 1777272541 | 18.33° C | 47% | 999 hPa | - | - | - | - |
| 1777271637 | 16.67° C | 47% | 997.6 hPa | - | - | - | - |
| 1777270737 | 15.56° C | 47% | 997.6 hPa | - | - | - | - |
| 1777269837 | 13.89° C | 46% | 997.7 hPa | - | - | - | - |
| 1777268936 | 12.78° C | 45% | 997.4 hPa | - | - | - | - |
| 1777268036 | 11.67° C | 44% | 997.1 hPa | - | - | - | - |
| 1777267136 | 11.67° C | 44% | 996.9 hPa | - | - | - | - |
| 1777266236 | 11.67° C | 44% | 996.8 hPa | - | - | - | - |
| 1777265336 | 11.67° C | 44% | 996.6 hPa | - | - | - | - |
| 1777264435 | 11.67° C | 44% | 996.7 hPa | - | - | - | - |
| 1777263535 | 12.22° C | 44% | 996.6 hPa | - | - | - | - |
| 1777262635 | 12.78° C | 44% | 996.6 hPa | - | - | - | - |
| 1777261735 | 12.22° C | 44% | 996.8 hPa | - | - | - | - |
| 1777260835 | 12.22° C | 44% | 996.6 hPa | - | - | - | - |
* Rain since midnight (hover to see other rain measurements)
** Current wind speed in m/s (hover to see current wind gust speed)